{"data":{"norad_id":54670,"epoch":"2026-09-20T03:48:41.488992Z","epoch_age_seconds":51527,"freshness":"FRESH","line1":"1 54670U 22166AE  26263.15881353  .00000037  00000+0  58205-4 0  9995","line2":"2 54670  87.9280 225.0940 0001994  76.2143 283.9213 13.21824452184111","mean_motion":13.21824452,"eccentricity":0.0001994,"inclination_deg":87.928,"raan_deg":225.094,"arg_perigee_deg":76.2143,"mean_anomaly_deg":283.9213,"bstar":5.8205e-5,"rev_number":18411,"period_min":108.94033605001,"perigee_km":1176.2526218298,"apogee_km":1179.2659132613,"semimajor_km":7555.8962675456,"source":"CELESTRAK","updated_at":"2026-09-20T09:00:44.747142Z"}}